Regional Weather Roundup
Issued by NWS

Home | Current Version | Previous Version | Text Only | Print | Product List | Glossary Off
Versions: 1 2 3 4 5 6 7 8 9 10 11 12 13 14 15 16 17 18 19 20 21 22 23 24 25 26 27 28 29 30 31 32 33 34 35 36 37 38 39 40 41 42 43 44 45 46 47 48 49 50

000
ASUS43 KLOT 261106
RWRIL

ILLINOIS REGIONAL WEATHER ROUNDUP
NATIONAL WEATHER SERVICE CHICAGO/ROMEOVILLE IL
500 AM CST WED NOV 26 2014

NOTE: "FAIR" INDICATES FEW OR NO CLOUDS BELOW 12,000 FEET WITH NO
SIGNIFICANT WEATHER AND/OR OBSTRUCTIONS TO VISIBILITY.

* THESE STATIONS ARE NOT UNDER NWS QUALITY CONTROL. THEY ALSO MAY NOT
  REPORT WEATHER SUCH AS PRECIPITATION OR FOG.

ILZ001-002-007-009-015-016-024-261200-
NORTHWEST ILLINOIS

CITY           SKY/WX    TMP DP  RH WIND       PRES   REMARKS
MOLINE         CLOUDY    17  14  88 E7        30.08S WCI   8
STERLING*      MOCLDY    16  12  86 E7        30.10F WCI   6
SAVANNA*       MOCLDY    16  14  90 E6        30.11S WCI   8
$$

ILZ003-004-008-010-011-017-018-261200-
NORTH CENTRAL ILLINOIS

CITY           SKY/WX    TMP DP  RH WIND       PRES   REMARKS
ROCKFORD       MOCLDY    14   9  80 SE3       30.15S HAZE
FREEPORT*      MOCLDY     8   6  88 E3        30.13F FOG
ROCHELLE*      MOCLDY    12  10  91 E5        30.13S FOG     WCI   4
DE KALB*       CLOUDY    13  11  91 SE3       30.13S FOG
PERU*          PTCLDY    17  15  93 E6        30.13F FOG     WCI   8
$$

ILZ005-006-012>014-019>023-261200-
NORTHEAST ILLINOIS

CITY           SKY/WX    TMP DP  RH WIND       PRES   REMARKS
CHICAGO-OHARE  CLEAR     20  15  81 E5        30.14S WCI  13
CHICAGO-MIDWAY PTCLDY    22  17  81 SE5       30.15S WCI  16
AURORA         MOCLDY    14   8  77 CALM      30.15R HAZE
LANSING*       CLOUDY    23  19  83 SE6       30.15F WCI  16
JOLIET*        CLOUDY    20  18  90 E5        30.15S FOG     WCI  14
WAUKEGAN       MOCLDY    11   8  88 CALM      30.14S
DUPAGE AIRPORT MOCLDY    15  12  88 CALM      30.14R FOG
KANKAKEE*      CLEAR    N/A N/A N/A E6        30.15S
WHEELING       CLEAR     18  14  84 CALM      30.16F FOG
MORRIS*        CLEAR     18  17  96 CALM      30.15R FOG
ROMEOVILLE*    MOCLDY    19  17  95 CALM      30.14S
NORTHERLY ISL    N/A     24  19  81 E6          N/A  WCI  17
$$

LMZ740>746-261200-
SOUTHERN LAKE MICHIGAN

STATION/POSITION SKY/WX   TEMP    WIND        PRES    VSBY  WAVE
                          AIR SEA DIR/SP/G                  HT/PER
                          (F)     (DEG/KT/KT) (MB)    (MI)  (FT/S)
SOUTHERN BUOY              28 42   CALM  /  8 1021.8F         1/ 3
WAUKEGAN HARBOR            22     150/  5/  7   N/A
HARRISON CRIB              24     110/  7/  9   N/A
BURNHAM HARBOR             24     110/  6/  9   N/A
CALUMET HARBOR             24     110/  7/  8 1019.7F
MICHIGAN CITY              23     100/  3/  4   N/A
$$

ILZ025>027-034>036-040-047-049-050-058-095>099-261200-
WEST-CENTRAL ILLINOIS

CITY           SKY/WX    TMP DP  RH WIND       PRES   REMARKS
QUINCY         MOCLDY    28  23  81 SE9       30.03F WCI  19
GALESBURG*     CLOUDY    22  21  95 E6        30.07S WCI  15
MACOMB*        CLOUDY    26  25  95 SE8       30.08S WCI  18
JACKSONVILLE*  CLOUDY    30  27  86 SE8       30.07F WCI  23
PITTSFIELD*    MOCLDY    29  26  89 SE5       30.06F WCI  24
$$

ILZ028>032-037-038-041>044-048-051>054-059>061-261200-
CENTRAL ILLINOIS

CITY           SKY/WX    TMP DP  RH WIND       PRES   REMARKS
PONTIAC        CLEAR     20  19  93 SE6       30.15R WCI  12
BLOOMINGTON    PTCLDY    21  20  96 SE7       30.12S WCI  12
DECATUR        CLEAR     22  19  89 SE5       30.12F WCI  16
PEORIA         MOCLDY    24  19  81 E3        30.10F
LACON*         PTCLDY    16  13  90 E5        30.11F WCI   9
LINCOLN*       MOCLDY    24  23  93 SE5       30.13S WCI  19
SPRINGFIELD    CLOUDY    27  24  89 SE7       30.10F WCI  19
TAYLORVILLE    PTCLDY    27  23  86 SE8       30.10F WCI  18
$$

ILZ033-039-045-046-055>057-062-063-261200-
EAST-CENTRAL ILLINOIS

CITY           SKY/WX    TMP DP  RH WIND       PRES   REMARKS
CHAMPAIGN      CLEAR     19  17  92 E8        30.13R WCI   9
DANVILLE*      CLEAR     21  19  93 E5        30.10F WCI  15
RANTOUL*       CLEAR     21  19  91 SE3       30.14R
MATTOON        CLEAR     22  19  89 SE5       30.11S WCI  16
PARIS*         CLEAR     24  22  96 E5        30.13F WCI  18
$$

ILZ079-100>102-261200-
SOUTHWEST ILLINOIS

CITY           SKY/WX    TMP DP  RH WIND       PRES   REMARKS
ALTON          CLOUDY    28  26  93 E7        30.10F WCI  20
BELLEVILLE     MOCLDY    25  25  99 E3        30.11S
CAHOKIA*       MOCLDY    29  26  89 SE6       30.10F WCI  23
SPARTA*        MOCLDY    27  25  93 SE5       30.12S WCI  21
$$

ILZ064>066-069>071-074>076-080>082-084>086-088>090-092>094-261200-
SOUTH-CENTRAL ILLINOIS

CITY           SKY/WX    TMP DP  RH WIND       PRES   REMARKS
CARBONDALE     PTCLDY    20  18  92 E3        30.12F
CAIRO*         CLEAR     29  26  90 E3        30.13S
EFFINGHAM*     CLEAR     24  20  87 SE5       30.13F WCI  18
MARION         CLEAR     25  23  93 CALM      30.13S
MT. VERNON     CLEAR     25  19  80 CALM      30.13S
CENTRALIA*     CLEAR     26  22  88 SE3       30.11F
SALEM*           N/A     27  24  87 SE6       30.12F WCI  21
METROPOLIS*    CLEAR     22  22 100 CALM        N/A  FOG
$$

ILZ067-068-072-073-078-083-087-091-261200-
SOUTHEAST ILLINOIS

CITY           SKY/WX    TMP DP  RH WIND       PRES   REMARKS
LAWRENCEVILLE  CLEAR     24  22  91 E5        30.15F WCI  18
FLORA*         CLEAR     22  22  99 CALM      30.15S
FAIRFIELD*     CLEAR     22  21  96 CALM      30.13F FOG
HARRISBURG*    CLEAR     25  25 100 E3        30.15F
ROBINSON*      CLEAR     23  21  93 E3        30.16S
CARMI*           N/A     23  23 100 CALM      30.15R FOG
$$

ABBREVIATIONS USED IN REMARKS
   TC - TEMPERATURE IN CELSIUS
  WCI - WIND CHILL INDEX
   HX - HEAT INDEX
  VSB - VISIBILITY
$$



USA.gov is the U.S. government's official web portal to all federal, state and local government web resources and services.